Voltar ao catálogo

STARLINK-36657

AtivoComunicaçõesVLEO
NORAD 67835·PAYLOAD·🇺🇸 United States

Lançado Feb 16, 2026 de Vandenberg Space Force Base

Loading…

Próximas Passagens (próximas 24 horas)

TLE

AtualizadoSource: CelesTrak SupGP

Época: Sep 15, 2026, 02:57 UTC

1 67835C 26033Q   26258.12340278 -.00005529  00000+0 -20025-3 0  2585
2 67835  43.0000 276.9597 0001122 260.5935 273.4919 15.27585412    15

Acompanhe STARLINK-36657 em tempo real com AllMySat

Download on the App Store